| time (UTC) | temp C | wind direction | speed KPH | gust KPH | rain 1hr cm | rain 24hr cm | rain mn cm | humidity % | barometer mb |
| 20260505125003 | 12 | 277 | 0.0 | 4.8 | 0.00 | 0.36 | 0.20 | 88 | 1014.2 |
| 20260505124503 | 12 | 292 | 0.0 | 4.8 | 0.00 | 0.36 | 0.20 | 88 | 1014.2 |
| 20260505124003 | 12 | 300 | 0.0 | 4.8 | 0.00 | 0.36 | 0.20 | 88 | 1014.2 |
| 20260505123717 | 12 | 271 | 1.6 | 4.8 | 0.00 | 0.36 | 0.20 | 88 | 1014.1 |
| 20260505123003 | 12 | 266 | 1.6 | 6.4 | 0.00 | 0.36 | 0.20 | 88 | 1014.0 |
| 20260505122503 | 12 | 280 | 1.6 | 6.4 | 0.00 | 0.36 | 0.20 | 88 | 1014.1 |
| 20260505122004 | 12 | 321 | 1.6 | 4.8 | 0.00 | 0.36 | 0.20 | 88 | 1014.1 |
| 20260505121503 | 12 | 319 | 1.6 | 4.8 | 0.00 | 0.36 | 0.20 | 88 | 1014.1 |
| 20260505121217 | 12 | 324 | 1.6 | 8.0 | 0.00 | 0.36 | 0.20 | 88 | 1014.1 |
| 20260505120503 | 12 | 287 | 1.6 | 8.0 | 0.00 | 0.36 | 0.20 | 88 | 1014.0 |
| 20260505120220 | 12 | 273 | 1.6 | 8.0 | 0.00 | 0.36 | 0.20 | 88 | 1014.0 |
| 20260505115716 | 12 | 284 | 1.6 | 6.4 | 0.00 | 0.36 | 0.20 | 88 | 1014.1 |
| 20260505115003 | 12 | 299 | 1.6 | 6.4 | 0.00 | 0.36 | 0.20 | 88 | 1014.0 |
| 20260505114503 | 12 | 296 | 0.0 | 6.4 | 0.00 | 0.36 | 0.20 | 88 | 1014.0 |
| 20260505114003 | 12 | 271 | 0.0 | 3.2 | 0.00 | 0.36 | 0.20 | 88 | 1014.0 |
| 20260505113503 | 12 | 269 | 0.0 | 3.2 | 0.00 | 0.36 | 0.20 | 88 | 1014.1 |
| 20260505113003 | 12 | 281 | 0.0 | 4.8 | 0.00 | 0.36 | 0.20 | 87 | 1014.1 |
| 20260505112503 | 12 | 330 | 0.0 | 4.8 | 0.00 | 0.36 | 0.20 | 87 | 1014.3 |
| 20260505112004 | 11 | 346 | 0.0 | 3.2 | 0.00 | 0.36 | 0.20 | 87 | 1014.4 |
| 20260505111504 | 11 | 276 | 1.6 | 6.4 | 0.00 | 0.36 | 0.20 | 87 | 1014.3 |
| 20260505111003 | 11 | 265 | 1.6 | 6.4 | 0.00 | 0.36 | 0.20 | 87 | 1014.2 |
| 20260505110503 | 11 | 258 | 0.0 | 3.2 | 0.00 | 0.36 | 0.20 | 87 | 1014.2 |
| 20260505102003 | 12 | 272 | 1.6 | 6.4 | 0.03 | 0.36 | 0.20 | 89 | 1014.1 |
| 20260505101503 | 12 | 280 | 1.6 | 6.4 | 0.03 | 0.36 | 0.20 | 89 | 1014.2 |
| 20260505101003 | 12 | 299 | 1.6 | 6.4 | 0.03 | 0.36 | 0.20 | 89 | 1014.3 |
| 20260505100503 | 12 | 310 | 0.0 | 3.2 | 0.05 | 0.36 | 0.20 | 89 | 1014.4 |
| 20260505100003 | 12 | 275 | 0.0 | 4.8 | 0.05 | 0.36 | 0.20 | 89 | 1014.4 |
| 20260505095715 | 12 | 273 | 1.6 | 4.8 | 0.05 | 0.36 | 0.20 | 89 | 1014.4 |
| 20260505095003 | 12 | 270 | 1.6 | 6.4 | 0.05 | 0.36 | 0.20 | 89 | 1014.4 |
| 20260505094717 | 12 | 272 | 1.6 | 6.4 | 0.05 | 0.36 | 0.20 | 89 | 1014.4 |
| 20260505094219 | 12 | 277 | 1.6 | 6.4 | 0.05 | 0.36 | 0.20 | 89 | 1014.4 |
| 20260505093503 | 12 | 264 | 1.6 | 6.4 | 0.05 | 0.36 | 0.20 | 89 | 1014.4 |
| 20260505093003 | 12 | 263 | 3.2 | 8.0 | 0.05 | 0.36 | 0.20 | 89 | 1014.5 |
| 20260505092503 | 12 | 264 | 1.6 | 8.0 | 0.03 | 0.33 | 0.18 | 89 | 1014.5 |
| 20260505092003 | 12 | 257 | 1.6 | 4.8 | 0.03 | 0.33 | 0.18 | 90 | 1014.5 |
| 20260505091503 | 12 | 258 | 1.6 | 4.8 | 0.05 | 0.33 | 0.18 | 90 | 1014.7 |
| 20260505091003 | 12 | 258 | 0.0 | 3.2 | 0.05 | 0.33 | 0.18 | 90 | 1014.8 |
| 20260505090503 | 12 | 257 | 0.0 | 3.2 | 0.05 | 0.30 | 0.15 | 90 | 1014.8 |
| 20260505090003 | 12 | 273 | 0.0 | 4.8 | 0.05 | 0.30 | 0.15 | 90 | 1014.8 |
| 20260505085503 | 12 | 270 | 1.6 | 6.4 | 0.08 | 0.30 | 0.15 | 90 | 1014.8 |
| 20260505085003 | 12 | 261 | 1.6 | 6.4 | 0.10 | 0.30 | 0.15 | 90 | 1014.9 |
| 20260505084503 | 12 | 259 | 0.0 | 4.8 | 0.13 | 0.30 | 0.15 | 90 | 1014.7 |
| 20260505084003 | 12 | 260 | 0.0 | 4.8 | 0.13 | 0.30 | 0.15 | 90 | 1014.8 |
| 20260505083503 | 12 | 267 | 0.0 | 3.2 | 0.13 | 0.30 | 0.15 | 90 | 1014.9 |
| 20260505083216 | 12 | 278 | 0.0 | 6.4 | 0.13 | 0.30 | 0.15 | 90 | 1014.9 |
| 20260505082717 | 12 | 275 | 1.6 | 6.4 | 0.13 | 0.30 | 0.15 | 89 | 1014.8 |
| 20260505082003 | 12 | 277 | 1.6 | 6.4 | 0.13 | 0.30 | 0.15 | 89 | 1014.9 |
| 20260505081719 | 12 | 264 | 1.6 | 6.4 | 0.13 | 0.28 | 0.13 | 89 | 1014.9 |
| 20260505081003 | 12 | 264 | 1.6 | 4.8 | 0.13 | 0.28 | 0.13 | 89 | 1014.9 |
| 20260505080503 | 12 | 269 | 1.6 | 6.4 | 0.10 | 0.25 | 0.10 | 89 | 1015.1 |
| 20260505080003 | 12 | 262 | 1.6 | 6.4 | 0.10 | 0.25 | 0.10 | 89 | 1015.2 |
| 20260505075503 | 11 | 260 | 0.0 | 4.8 | 0.08 | 0.23 | 0.08 | 89 | 1015.2 |
| 20260505075003 | 11 | 264 | 1.6 | 8.0 | 0.05 | 0.20 | 0.05 | 89 | 1015.1 |
| 20260505074504 | 11 | 262 | 1.6 | 8.0 | 0.03 | 0.18 | 0.03 | 89 | 1014.9 |
| 20260505074003 | 11 | 262 | 0.0 | 3.2 | 0.03 | 0.18 | 0.03 | 89 | 1015.0 |
| 20260505073719 | 11 | 276 | 1.6 | 6.4 | 0.03 | 0.18 | 0.03 | 89 | 1015.1 |
| 20260505073003 | 11 | 278 | 1.6 | 6.4 | 0.03 | 0.18 | 0.03 | 89 | 1015.3 |
| 20260505072503 | 11 | 266 | 0.0 | 4.8 | 0.03 | 0.18 | 0.03 | 89 | 1015.4 |
| 20260505072003 | 11 | 260 | 0.0 | 3.2 | 0.03 | 0.18 | 0.03 | 89 | 1015.4 |
| 20260505071503 | 11 | 263 | 0.0 | 4.8 | 0.03 | 0.15 | 0.00 | 89 | 1015.5 |
| 20260505071003 | 11 | 263 | 0.0 | 4.8 | 0.03 | 0.15 | 0.00 | 89 | 1015.4 |
| 20260505070503 | 11 | 263 | 0.0 | 4.8 | 0.03 | 0.15 | 0.00 | 89 | 1015.4 |
| 20260505070004 | 11 | 262 | 0.0 | 4.8 | 0.03 | 0.15 | 0.00 | 89 | 1015.3 |
| 20260505065503 | 11 | 267 | 1.6 | 4.8 | 0.05 | 0.15 | 0.15 | 88 | 1015.2 |
| 20260505065003 | 11 | 277 | 1.6 | 4.8 | 0.05 | 0.15 | 0.15 | 88 | 1015.2 |
| 20260505064503 | 11 | 292 | 1.6 | 4.8 | 0.05 | 0.15 | 0.15 | 88 | 1015.0 |
| 20260505064003 | 11 | 280 | 1.6 | 6.4 | 0.05 | 0.15 | 0.15 | 88 | 1014.9 |
| 20260505063503 | 11 | 295 | 1.6 | 6.4 | 0.05 | 0.15 | 0.15 | 88 | 1014.9 |
| 20260505063003 | 11 | 311 | 1.6 | 4.8 | 0.08 | 0.15 | 0.15 | 87 | 1014.8 |
| 20260505062716 | 11 | 308 | 1.6 | 4.8 | 0.08 | 0.15 | 0.15 | 87 | 1014.6 |
| 20260505062003 | 11 | 285 | 1.6 | 6.4 | 0.08 | 0.15 | 0.15 | 86 | 1014.7 |
| 20260505061503 | 11 | 270 | 1.6 | 6.4 | 0.05 | 0.13 | 0.13 | 86 | 1014.8 |
| 20260505061003 | 11 | 266 | 0.0 | 4.8 | 0.08 | 0.13 | 0.13 | 86 | 1014.9 |
| 20260505060503 | 11 | 273 | 0.0 | 4.8 | 0.08 | 0.13 | 0.13 | 85 | 1015.0 |
| 20260505060003 | 11 | 276 | 0.0 | 4.8 | 0.08 | 0.13 | 0.13 | 85 | 1015.1 |
| 20260505055503 | 12 | 276 | 1.6 | 4.8 | 0.08 | 0.10 | 0.10 | 85 | 1015.1 |
| 20260505055219 | 12 | 268 | 1.6 | 8.0 | 0.08 | 0.10 | 0.10 | 85 | 1015.1 |
| 20260505054503 | 12 | 266 | 1.6 | 8.0 | 0.10 | 0.10 | 0.10 | 86 | 1015.2 |
| 20260505054003 | 12 | 269 | 1.6 | 6.4 | 0.10 | 0.10 | 0.10 | 87 | 1015.1 |
| 20260505053503 | 12 | 265 | 1.6 | 4.8 | 0.10 | 0.10 | 0.10 | 87 | 1015.0 |
| 20260505053003 | 12 | 266 | 0.0 | 4.8 | 0.08 | 0.08 | 0.08 | 87 | 1015.0 |
| 20260505052503 | 12 | 274 | 0.0 | 3.2 | 0.08 | 0.08 | 0.08 | 87 | 1014.9 |
| 20260505052003 | 12 | 254 | 0.0 | 4.8 | 0.08 | 0.08 | 0.08 | 87 | 1014.9 |
| 20260505051718 | 12 | 241 | 0.0 | 4.8 | 0.08 | 0.08 | 0.08 | 86 | 1014.9 |
| 20260505051003 | 12 | 258 | 0.0 | 6.4 | 0.05 | 0.05 | 0.05 | 86 | 1015.0 |
| 20260505050503 | 12 | 261 | 0.0 | 6.4 | 0.05 | 0.05 | 0.05 | 86 | 1015.2 |
| 20260505041503 | 13 | 279 | 3.2 | 11.3 | 0.00 | 0.00 | 0.00 | 79 | 1015.4 |
| 20260505041003 | 13 | 273 | 3.2 | 11.3 | 0.00 | 0.00 | 0.00 | 79 | 1015.3 |
| 20260505040503 | 13 | 269 | 3.2 | 9.7 | 0.00 | 0.00 | 0.00 | 78 | 1015.1 |
| 20260505040004 | 13 | 278 | 1.6 | 8.0 | 0.00 | 0.00 | 0.00 | 78 | 1014.9 |
| 20260505035503 | 13 | 273 | 3.2 | 8.0 | 0.00 | 0.00 | 0.00 | 78 | 1014.9 |
| 20260505035218 | 13 | 267 | 1.6 | 8.0 | 0.00 | 0.00 | 0.00 | 78 | 1014.7 |
| 20260505034503 | 13 | 266 | 3.2 | 12.9 | 0.00 | 0.00 | 0.00 | 78 | 1014.7 |
| 20260505034003 | 13 | 259 | 3.2 | 12.9 | 0.00 | 0.00 | 0.00 | 78 | 1014.6 |
| 20260505033503 | 13 | 270 | 1.6 | 9.7 | 0.00 | 0.00 | 0.00 | 78 | 1014.5 |
| 20260505033003 | 13 | 295 | 1.6 | 4.8 | 0.00 | 0.00 | 0.00 | 79 | 1014.5 |
| 20260505032719 | 13 | 280 | 1.6 | 11.3 | 0.00 | 0.00 | 0.00 | 79 | 1014.5 |
| 20260505032003 | 13 | 275 | 3.2 | 12.9 | 0.00 | 0.00 | 0.00 | 79 | 1014.4 |
| 20260505031717 | 13 | 270 | 1.6 | 12.9 | 0.00 | 0.00 | 0.00 | 79 | 1014.4 |
| 20260505031003 | 13 | 261 | 1.6 | 11.3 | 0.00 | 0.00 | 0.00 | 81 | 1014.3 |
| 20260505030719 | 13 | 265 | 3.2 | 11.3 | 0.00 | 0.00 | 0.00 | 81 | 1014.4 |
| 20260505030003 | 13 | 278 | 3.2 | 11.3 | 0.00 | 0.00 | 0.00 | 81 | 1014.3 |
| 20260505025503 | 13 | 288 | 3.2 | 8.0 | 0.00 | 0.00 | 0.00 | 81 | 1014.4 |
| 20260505025003 | 13 | 288 | 3.2 | 9.7 | 0.00 | 0.00 | 0.00 | 82 | 1014.5 |
| 20260505024503 | 13 | 330 | 3.2 | 9.7 | 0.00 | 0.00 | 0.00 | 82 | 1014.5 |
| 20260505024216 | 13 | 358 | 3.2 | 9.7 | 0.00 | 0.00 | 0.00 | 82 | 1014.5 |
| 20260505023503 | 13 | 339 | 3.2 | 11.3 | 0.00 | 0.00 | 0.00 | 81 | 1014.5 |
| 20260505023003 | 13 | 296 | 3.2 | 9.7 | 0.00 | 0.00 | 0.00 | 80 | 1014.5 |
| 20260505022503 | 13 | 272 | 3.2 | 8.0 | 0.00 | 0.00 | 0.00 | 81 | 1014.3 |
| 20260505022003 | 13 | 272 | 3.2 | 8.0 | 0.00 | 0.00 | 0.00 | 81 | 1014.2 |
| 20260505021717 | 13 | 273 | 3.2 | 11.3 | 0.00 | 0.00 | 0.00 | 82 | 1014.3 |
| 20260505021003 | 14 | 279 | 3.2 | 11.3 | 0.00 | 0.00 | 0.00 | 82 | 1014.3 |
| 20260505020503 | 14 | 327 | 1.6 | 9.7 | 0.00 | 0.00 | 0.00 | 81 | 1014.3 |
| 20260505020003 | 14 | 342 | 3.2 | 12.9 | 0.00 | 0.00 | 0.00 | 81 | 1014.4 |
| 20260505015503 | 14 | 331 | 4.8 | 12.9 | 0.00 | 0.00 | 0.00 | 81 | 1014.4 |
| 20260505015003 | 14 | 312 | 3.2 | 11.3 | 0.00 | 0.00 | 0.00 | 81 | 1014.5 |
| 20260505014503 | 14 | 307 | 3.2 | 9.7 | 0.00 | 0.00 | 0.00 | 81 | 1014.7 |
| 20260505014215 | 14 | 317 | 1.6 | 9.7 | 0.00 | 0.00 | 0.00 | 81 | 1014.7 |
| 20260505013503 | 15 | 305 | 3.2 | 11.3 | 0.00 | 0.00 | 0.00 | 81 | 1014.7 |
| 20260505013003 | 15 | 320 | 3.2 | 11.3 | 0.00 | 0.00 | 0.00 | 81 | 1014.6 |
| 20260505012503 | 14 | 312 | 3.2 | 11.3 | 0.00 | 0.00 | 0.00 | 81 | 1014.6 |
| 20260505012003 | 14 | 299 | 4.8 | 11.3 | 0.00 | 0.00 | 0.00 | 82 | 1014.5 |
| 20260505011503 | 15 | 293 | 3.2 | 12.9 | 0.00 | 0.00 | 0.00 | 82 | 1014.6 |
| 20260505011003 | 14 | 271 | 3.2 | 16.1 | 0.00 | 0.00 | 0.00 | 83 | 1014.7 |
| 20260505010503 | 14 | 266 | 3.2 | 16.1 | 0.00 | 0.00 | 0.00 | 83 | 1014.6 |
| 20260505010219 | 14 | 265 | 4.8 | 16.1 | 0.00 | 0.00 | 0.00 | 83 | 1014.6 |
| 20260505005503 | 15 | 265 | 3.2 | 16.1 | 0.00 | 0.00 | 0.00 | 82 | 1014.8 |
| 20260505005004 | 15 | 271 | 1.6 | 9.7 | 0.00 | 0.00 | 0.00 | 82 | 1014.8 |
| 20260505004503 | 15 | 273 | 3.2 | 9.7 | 0.00 | 0.00 | 0.00 | 82 | 1014.8 |
| 20260505004003 | 15 | 262 | 3.2 | 11.3 | 0.00 | 0.00 | 0.00 | 82 | 1014.8 |
| 20260505003503 | 15 | 261 | 3.2 | 11.3 | 0.00 | 0.00 | 0.00 | 81 | 1014.9 |
| 20260505003003 | 15 | 275 | 3.2 | 12.9 | 0.00 | 0.00 | 0.00 | 81 | 1014.9 |
| 20260504224003 | 16 | 289 | 3.2 | 12.9 | 0.00 | 0.00 | 0.00 | 76 | 1015.1 |
| 20260504223503 | 16 | 277 | 4.8 | 12.9 | 0.00 | 0.00 | 0.00 | 76 | 1015.0 |
| 20260504223003 | 16 | 266 | 4.8 | 12.9 | 0.00 | 0.00 | 0.00 | 75 | 1015.1 |
| 20260504222503 | 16 | 264 | 4.8 | 12.9 | 0.00 | 0.00 | 0.00 | 74 | 1015.0 |
| 20260504222003 | 16 | 269 | 4.8 | 14.5 | 0.00 | 0.00 | 0.00 | 74 | 1015.1 |
| 20260504221503 | 16 | 271 | 6.4 | 16.1 | 0.00 | 0.00 | 0.00 | 73 | 1015.0 |
| 20260504221003 | 16 | 270 | 6.4 | 16.1 | 0.00 | 0.00 | 0.00 | 74 | 1015.1 |
| 20260504220503 | 16 | 261 | 6.4 | 16.1 | 0.00 | 0.00 | 0.00 | 72 | 1015.2 |
| 20260504220003 | 16 | 268 | 4.8 | 16.1 | 0.00 | 0.00 | 0.00 | 72 | 1015.1 |
| 20260504215719 | 16 | 274 | 4.8 | 12.9 | 0.00 | 0.00 | 0.00 | 73 | 1015.1 |
| 20260504215003 | 17 | 284 | 4.8 | 17.7 | 0.00 | 0.00 | 0.00 | 71 | 1015.1 |
| 20260504214503 | 17 | 284 | 6.4 | 17.7 | 0.00 | 0.00 | 0.00 | 71 | 1015.1 |
| 20260504214003 | 16 | 272 | 6.4 | 17.7 | 0.00 | 0.00 | 0.00 | 72 | 1015.1 |
| 20260504213504 | 17 | 267 | 4.8 | 16.1 | 0.00 | 0.00 | 0.00 | 70 | 1014.9 |
| 20260504213216 | 17 | 272 | 4.8 | 12.9 | 0.00 | 0.00 | 0.00 | 70 | 1014.9 |
| 20260504212717 | 17 | 272 | 6.4 | 14.5 | 0.00 | 0.00 | 0.00 | 70 | 1015.1 |
| 20260504212003 | 17 | 263 | 3.2 | 14.5 | 0.00 | 0.00 | 0.00 | 70 | 1015.1 |
| 20260504211503 | 17 | 260 | 3.2 | 12.9 | 0.00 | 0.00 | 0.00 | 69 | 1015.1 |
| 20260504211003 | 17 | 269 | 4.8 | 12.9 | 0.00 | 0.00 | 0.00 | 70 | 1015.2 |
| 20260504210717 | 17 | 278 | 4.8 | 12.9 | 0.00 | 0.00 | 0.00 | 69 | 1015.2 |
| 20260504210218 | 17 | 291 | 3.2 | 11.3 | 0.00 | 0.00 | 0.00 | 67 | 1015.2 |
| 20260504205503 | 17 | 272 | 3.2 | 14.5 | 0.00 | 0.00 | 0.00 | 70 | 1015.3 |
| 20260504205216 | 17 | 271 | 4.8 | 14.5 | 0.00 | 0.00 | 0.00 | 69 | 1015.3 |
| 20260504204717 | 17 | 277 | 4.8 | 12.9 | 0.00 | 0.00 | 0.00 | 69 | 1015.4 |
| 20260504204003 | 17 | 268 | 4.8 | 12.9 | 0.00 | 0.00 | 0.00 | 70 | 1015.3 |
| 20260504203503 | 17 | 254 | 4.8 | 9.7 | 0.00 | 0.00 | 0.00 | 70 | 1015.2 |
| 20260504203216 | 17 | 256 | 4.8 | 11.3 | 0.00 | 0.00 | 0.00 | 69 | 1015.3 |
| 20260504202503 | 17 | 266 | 4.8 | 16.1 | 0.00 | 0.00 | 0.00 | 69 | 1015.2 |
| 20260504202003 | 17 | 270 | 4.8 | 16.1 | 0.00 | 0.00 | 0.00 | 69 | 1015.1 |
| 20260504201503 | 17 | 266 | 6.4 | 16.1 | 0.00 | 0.00 | 0.00 | 69 | 1015.0 |
| 20260504201003 | 17 | 263 | 4.8 | 16.1 | 0.00 | 0.00 | 0.00 | 69 | 1015.1 |
| 20260504200503 | 17 | 247 | 4.8 | 12.9 | 0.00 | 0.00 | 0.00 | 69 | 1015.2 |
| 20260504200003 | 17 | 244 | 4.8 | 12.9 | 0.00 | 0.00 | 0.00 | 67 | 1015.2 |
| 20260504195503 | 17 | 265 | 4.8 | 11.3 | 0.00 | 0.00 | 0.00 | 68 | 1015.2 |
| 20260504195003 | 17 | 274 | 4.8 | 11.3 | 0.00 | 0.00 | 0.00 | 69 | 1015.1 |
| 20260504194503 | 17 | 266 | 4.8 | 14.5 | 0.00 | 0.00 | 0.00 | 71 | 1015.2 |
| 20260504194003 | 17 | 254 | 4.8 | 17.7 | 0.00 | 0.00 | 0.00 | 70 | 1015.3 |
| 20260504193503 | 17 | 237 | 4.8 | 17.7 | 0.00 | 0.00 | 0.00 | 70 | 1015.2 |
| 20260504193003 | 17 | 238 | 4.8 | 17.7 | 0.00 | 0.00 | 0.00 | 72 | 1015.2 |
| 20260504192503 | 17 | 259 | 4.8 | 14.5 | 0.00 | 0.00 | 0.00 | 72 | 1015.1 |
| 20260504192003 | 16 | 260 | 6.4 | 14.5 | 0.00 | 0.00 | 0.00 | 72 | 1015.2 |
| 20260504191503 | 17 | 253 | 3.2 | 12.9 | 0.00 | 0.00 | 0.00 | 72 | 1015.5 |
| 20260504191219 | 17 | 263 | 4.8 | 12.9 | 0.00 | 0.00 | 0.00 | 72 | 1015.4 |
| 20260504190716 | 16 | 263 | 6.4 | 12.9 | 0.00 | 0.00 | 0.00 | 74 | 1015.4 |
| 20260504190003 | 17 | 262 | 6.4 | 14.5 | 0.00 | 0.00 | 0.00 | 73 | 1015.3 |
| 20260504185718 | 17 | 265 | 6.4 | 14.5 | 0.00 | 0.00 | 0.00 | 72 | 1015.3 |
| 20260504185003 | 17 | 250 | 4.8 | 17.7 | 0.00 | 0.00 | 0.00 | 73 | 1015.3 |
| 20260504184503 | 17 | 269 | 3.2 | 11.3 | 0.00 | 0.00 | 0.00 | 72 | 1015.2 |
| 20260504184003 | 17 | 261 | 4.8 | 12.9 | 0.00 | 0.00 | 0.00 | 72 | 1015.4 |
| 20260504183503 | 17 | 240 | 4.8 | 12.9 | 0.00 | 0.00 | 0.00 | 72 | 1015.3 |
| 20260504183003 | 17 | 250 | 3.2 | 9.7 | 0.00 | 0.00 | 0.00 | 71 | 1015.2 |
| 20260504182503 | 17 | 260 | 3.2 | 12.9 | 0.00 | 0.00 | 0.00 | 70 | 1015.2 |
| 20260504182003 | 17 | 252 | 3.2 | 16.1 | 0.00 | 0.00 | 0.00 | 73 | 1015.2 |
| 20260504181503 | 17 | 230 | 4.8 | 16.1 | 0.00 | 0.00 | 0.00 | 72 | 1015.2 |
| 20260504181003 | 17 | 216 | 4.8 | 14.5 | 0.00 | 0.00 | 0.00 | 72 | 1015.3 |
| 20260504180716 | 17 | 227 | 4.8 | 14.5 | 0.00 | 0.00 | 0.00 | 72 | 1015.2 |
| 20260504180004 | 17 | 205 | 3.2 | 17.7 | 0.00 | 0.00 | 0.00 | 72 | 1015.1 |
| 20260504175503 | 17 | 247 | 4.8 | 17.7 | 0.00 | 0.00 | 0.00 | 73 | 1015.0 |
| 20260504175003 | 16 | 257 | 4.8 | 12.9 | 0.00 | 0.00 | 0.00 | 73 | 1015.1 |
| 20260504174503 | 16 | 234 | 3.2 | 11.3 | 0.00 | 0.00 | 0.00 | 71 | 1015.1 |
| 20260504174003 | 16 | 228 | 3.2 | 11.3 | 0.00 | 0.00 | 0.00 | 73 | 1015.0 |
| 20260504173503 | 16 | 233 | 3.2 | 9.7 | 0.00 | 0.00 | 0.00 | 72 | 1015.0 |
| 20260504173008 | 16 | 219 | 3.2 | 9.7 | 0.00 | 0.00 | 0.00 | 72 | 1014.9 |
| 20260504172719 | 16 | 224 | 3.2 | 9.7 | 0.00 | 0.00 | 0.00 | 72 | 1014.9 |
| 20260504172003 | 16 | 248 | 3.2 | 9.7 | 0.00 | 0.00 | 0.00 | 72 | 1014.9 |
| 20260504171503 | 16 | 325 | 3.2 | 9.7 | 0.00 | 0.00 | 0.00 | 72 | 1014.7 |
| 20260504171003 | 16 | 327 | 3.2 | 9.7 | 0.00 | 0.00 | 0.00 | 73 | 1014.7 |
| 20260504170719 | 16 | 297 | 3.2 | 11.3 | 0.00 | 0.00 | 0.00 | 72 | 1014.6 |
| 20260504151003 | 15 | 270 | 0.0 | 4.8 | 0.00 | 0.00 | 0.00 | 78 | 1014.5 |
| 20260504150503 | 16 | 218 | 0.0 | 3.2 | 0.00 | 0.00 | 0.00 | 79 | 1014.4 |
| 20260504141003 | 13 | 0 | 0.0 | 0.0 | 0.00 | 0.00 | 0.00 | 89 | 1014.5 |
| 20260504140503 | 12 | 0 | 0.0 | 0.0 | 0.00 | 0.00 | 0.00 | 89 | 1014.5 |